Lemoore Naval Air Station (Reeves Field) Airport
KNLC : now visible

Airfield :











YOU CAN JOIN US ON...

 
LOGIN :

Register | Disclaimer

   EN    FR    IT 

 









Legend :    VFR   Marginal VFR   IFR   Intensive IFR   Very Intensive IFR
Visi :
Ceiling :
>= 8 km
>= 3000ft
5 to 8 km
1000 to 3000 ft
1500m to 5 km
500 to 1000 ft
800 to 1500m
200 to 500 ft
< 800m
< 200 ft
Symbols :   Thunderstorms  Fog  Heavy snow  Heavy precipitations  Wind > 20 kt






- Airport Elevation : 232 ft


KNLC - Lemoore Naval Air Station (Reeves Field)

CURRENT METAR :
  • 190756Z 32014KT 10SM CLR 19/12 A3003 RMK AO2 SLP168 T01940122 403110144

EXPIRED METARs :
  • 190656Z 32012KT 10SM CLR 20/12 A3003 RMK AO2 SLP167 T02000122
  • 190556Z 32017KT 10SM CLR 22/12 A3002 RMK AO2 SLP163 T02170117 10306 20211 51019

TAF TAF KNLC
Valid from the 18 at 23:00 until the 19 at 23:00 UTC


1823/1923 35009KT 9999 SCT100 QNH2993INS
TEMPO 1909/1915 32013KT T14/1913Z T32/1923Z FS30014
KZOA FIR / North America



MET'MAP, your aeronautical weather chart ! - Copyright ORBIFLY December 2007 - Disclaimer

ORBIFLY MET'MAP TEAM :

Programming & Development : Alexandra Zaïnal
Concept & original design : Baudouin d'Aumeries
Assistance for programming : Marc-Olivier Méhu
Technical & hardware support : Manuel Goepfert

Contact : metmap@orbifly.com




SOURCES & CREDITS :

   NOAA       Earth
Advisory